Location: Dead Woman Crossing
(43.5369°N, 106.3228°W)
Time: 13:22:29
(UTC+00:00)

ZACube-1 - Pass Details

Date: 02 July 2022
Orbit: 582 x 661 km, 97.6° (Epoch: 14 August)

Event Time Altitude Azimuth Distance (km) Brightness Sun altitude
Rises 10:35:21 0° 18° (NNE) 2,957 ? -8.4°
Reaches altitude 10° 10:37:38 10° 25° (NNE) 2,053 ? -8.1°
Maximum altitude 10:41:58 46° 98° (E) 880 ? -7.5°
Drops below altitude 10° 10:46:19 10° 173° (S) 2,067 ? -6.9°
Sets 10:48:37 0° 179° (S) 2,978 ? -6.6°
